Blue Ridge Airport

Jump to: basic info | weather | frequencies | runways | comments

Related pages: nearby airports | nearby navaids | notams | map

Basic information (top)

Codes: KMTV MTV
Location: lon 36.630699, lat -80.018303, elev 941 ft / 287 m msl
Status: small_airport

Weather (top)

Current conditions (rec'd 2014/10/21 19:35Z):

KMTV 211935Z AUTO 28007KT 230V320 10SM CLR 21/06 A2988 RMK AO2 T02100057

Airport forecast for Smith Reynolds Airport 31nm (58km) SSW (rec'd 2014/10/21 18:39Z):

TAF KINT 211733Z 2118/2218 28010G16KT P6SM SCT050 
      TEMPO 2119/2122 BKN040 
     FM212200 32012G22KT P6SM FEW040 
     FM221600 33012G22KT P6SM FEW030

Frequencies (top)

Verify before use: may be inaccurate or out of date.

A/D: 124.35 MHz (GREENSBORO APP/DEP)
AWOS: 118.45 MHz (AWOS 3)
CLD: 124.85 MHz (CLNC DEL)
UNIC: 122.7 MHz (CTAF/UNICOM)

Runways (top)

12/30: 5,002 x 100 ft (1,525 x 30 m) — paved — lighted

Latest comments (top)

Runway Cafe: Great little place to eat right next to ... [read]

More... (top)

See also NOTAMs and nearby airports and navaids, or visit the Blue Ridge Airport page at the main OurAirports website..